QPF
0.00 0.00 0.00 0.00 0.00 0.00 0.01 0.01 0.00 0.00 0.00 0.00 0.00 0.00 0.00 0.00 0.00 0.00 0.00 0.00 0.00 0.00 0.00 0.00 0.00 0.00 0.00 0.01 0.02 0.03 0.02 0.01 0.00 0.01 0.03 0.03 0.02 0.01 0.00 0.00 0.00 0.00 0.00 0.00 0.00 0.00 0.00 0.01 0.01
0.00 0.00 0.00 0.00 0.00 0.00 0.01 0.01 0.00 0.00 0.00 0.00 0.00 0.00 0.00 0.00 0.00 0.00 0.00 0.00 0.00 0.00 0.00 0.00 0.00 0.00 0.00 0.00 0.01 0.04 0.04 0.02 0.01 0.04 0.04 0.03 0.02 0.01 0.01 0.01 0.01 0.00 0.00 0.00 0.00 0.00 0.00 0.00 0.00
0.00 0.00 0.00 0.00 0.00 0.00 0.01 0.01 0.00 0.00 0.00 0.00 0.00 0.00 0.00 0.00 0.00 0.00 0.00 0.00 0.00 0.00 0.00 0.00 0.00 0.00 0.00 0.00 0.01 0.03 0.05 0.03 0.03 0.05 0.05 0.03 0.03 0.03 0.02 0.02 0.02 0.01 0.00 0.00 0.00 0.00 0.01 0.00 0.00
0.00 0.00 0.00 0.00 0.00 0.00 0.00 0.00 0.00 0.00 0.00 0.00 0.00 0.00 0.00 0.00 0.00 0.00 0.00 0.00 0.00 0.00 0.00 0.00 0.00 0.00 0.00 0.00 0.00 0.02 0.04 0.04 0.04 0.05 0.04 0.05 0.06 0.05 0.03 0.04 0.04 0.01 0.00 0.00 0.01 0.01 0.01 0.01 0.00
0.00 0.00 0.00 0.00 0.00 0.00 0.00 0.00 0.00 0.00 0.00 0.00 0.00 0.00 0.00 0.00 0.00 0.00 0.00 0.00 0.00 0.00 0.00 0.00 0.00 0.00 0.00 0.00 0.00 0.01 0.02 0.02 0.03 0.05 0.07 0.05 0.04 0.04 0.03 0.03 0.03 0.01 0.00 0.00 0.00 0.00 0.01 0.01 0.00
0.00 0.00 0.00 0.00 0.00 0.00 0.00 0.00 0.00 0.01 0.00 0.00 0.00 0.00 0.00 0.00 0.00 0.00 0.00 0.00 0.00 0.00 0.00 0.00 0.00 0.00 0.00 0.00 0.00 0.00 0.01 0.01 0.02 0.03 0.05 0.03 0.01 0.01 0.01 0.01 0.01 0.00 0.00 0.00 0.00 0.00 0.00 0.00 0.00
0.00 0.00 0.00 0.00 0.00 0.00 0.00 0.00 0.00 0.00 0.00 0.00 0.00 0.00 0.00 0.00 0.00 0.00 0.00 0.00 0.00 0.00 0.00 0.00 0.00 0.00 0.00 0.00 0.00 0.00 0.00 0.01 0.01 0.01 0.01 0.01 0.00 0.00 0.00 0.00 0.00 0.00 0.00 0.00 0.00 0.00 0.00 0.00 0.00
0.00 0.00 0.00 0.00 0.00 0.00 0.00 0.00 0.00 0.00 0.00 0.00 0.00 0.00 0.00 0.00 0.00 0.00 0.00 0.00 0.00 0.00 0.00 0.00 0.00 0.00 0.00 0.00 0.00 0.00 0.00 0.00 0.00 0.00 0.00 0.00 0.00 0.00 0.00 0.00 0.00 0.00 0.00 0.00 0.00 0.00 0.00 0.00 0.00
0.00 0.00 0.00 0.00 0.00 0.00 0.00 0.00 0.00 0.00 0.00 0.00 0.00 0.00 0.00 0.00 0.00 0.00 0.00 0.00 0.00 0.00 0.00 0.00 0.00 0.00 0.00 0.00 0.00 0.00 0.00 0.00 0.00 0.00 0.00 0.00 0.00 0.01 0.02 0.01 0.02 0.01 0.00 0.00 0.00 0.00 0.00 0.00 0.00
0.00 0.00 0.00 0.00 0.00 0.00 0.00 0.00 0.00 0.00 0.00 0.00 0.00 0.00 0.00 0.00 0.00 0.00 0.00 0.00 0.00 0.00 0.00 0.00 0.00 0.00 0.00 0.00 0.00 0.00 0.00 0.00 0.00 0.01 0.01 0.01 0.01 0.01 0.01 0.01 0.02 0.01 0.00 0.00 0.01 0.00 0.00 0.01 0.02
0.00 0.00 0.00 0.00 0.00 0.00 0.00 0.00 0.00 0.00 0.00 0.00 0.00 0.00 0.00 0.00 0.00 0.00 0.00 0.00 0.00 0.00 0.00 0.00 0.00 0.00 0.00 0.00 0.00 0.00 0.00 0.00 0.00 0.00 0.01 0.01 0.01 0.00 0.00 0.02 0.04 0.03 0.02 0.11 0.16 0.07 0.03 0.07 0.07
0.00 0.00 0.00 0.00 0.00 0.00 0.00 0.00 0.00 0.00 0.00 0.00 0.00 0.00 0.00 0.00 0.00 0.00 0.00 0.00 0.00 0.00 0.00 0.00 0.00 0.00 0.00 0.00 0.00 0.00 0.00 0.00 0.00 0.00 0.00 0.00 0.00 0.01 0.03 0.07 0.11 0.13 0.11 0.16 0.15 0.16 0.07 0.04 0.02
0.00 0.00 0.00 0.00 0.00 0.00 0.00 0.00 0.00 0.00 0.00 0.00 0.00 0.00 0.00 0.00 0.00 0.00 0.00 0.00 0.00 0.00 0.00 0.00 0.00 0.00 0.00 0.00 0.00 0.00 0.00 0.00 0.00 0.00 0.00 0.00 0.00 0.02 0.05 0.07 0.08 0.06 0.08 0.10 0.10 0.08 0.07 0.05 0.04
0.00 0.00 0.00 0.00 0.00 0.00 0.00 0.00 0.00 0.00 0.00 0.00 0.00 0.00 0.00 0.00 0.00 0.00 0.00 0.00 0.00 0.00 0.00 0.00 0.00 0.00 0.00 0.00 0.00 0.00 0.00 0.00 0.00 0.00 0.00 0.00 0.01 0.03 0.05 0.07 0.07 0.04 0.04 0.10 0.13 0.10 0.14 0.10 0.07
0.00 0.00 0.00 0.00 0.00 0.00 0.00 0.00 0.00 0.00 0.00 0.00 0.00 0.00 0.00 0.00 0.00 0.00 0.00 0.00 0.00 0.00 0.00 0.00 0.00 0.00 0.00 0.00 0.00 0.00 0.00 0.00 0.00 0.00 0.00 0.00 0.01 0.04 0.04 0.09 0.09 0.07 0.05 0.10 0.10 0.11 0.13 0.10 0.07
0.00 0.00 0.00 0.00 0.00 0.00 0.00 0.00 0.00 0.00 0.00 0.00 0.00 0.00 0.00 0.00 0.00 0.00 0.00 0.00 0.00 0.00 0.00 0.00 0.00 0.00 0.00 0.00 0.02 0.03 0.02 0.01 0.00 0.00 0.00 0.01 0.02 0.05 0.08 0.09 0.10 0.12 0.11 0.14 0.17 0.17 0.15 0.16 0.10
0.00 0.00 0.00 0.00 0.00 0.00 0.00 0.00 0.00 0.00 0.00 0.00 0.00 0.00 0.00 0.01 0.00 0.00 0.00 0.00 0.00 0.00 0.00 0.00 0.00 0.00 0.00 0.02 0.05 0.09 0.12 0.08 0.04 0.02 0.03 0.05 0.07 0.08 0.15 0.11 0.11 0.11 0.16 0.16 0.11 0.20 0.19 0.20 0.15
0.00 0.00 0.00 0.00 0.00 0.00 0.00 0.00 0.00 0.00 0.00 0.00 0.00 0.00 0.00 0.00 0.00 0.00 0.00 0.00 0.00 0.00 0.00 0.00 0.00 0.00 0.02 0.06 0.10 0.14 0.18 0.15 0.11 0.07 0.08 0.10 0.13 0.14 0.17 0.13 0.14 0.11 0.17 0.18 0.15 0.18 0.18 0.17 0.14
0.00 0.00 0.00 0.00 0.00 0.00 0.00 0.00 0.00 0.00 0.00 0.00 0.00 0.00 0.01 0.01 0.00 0.00 0.00 0.00 0.00 0.01 0.02 0.04 0.04 0.03 0.05 0.08 0.10 0.15 0.21 0.25 0.26 0.21 0.17 0.15 0.14 0.14 0.16 0.10 0.17 0.15 0.15 0.17 0.16 0.23 0.26 0.23 0.20
0.00 0.00 0.00 0.00 0.00 0.00 0.00 0.00 0.00 0.00 0.00 0.00 0.00 0.00 0.01 0.03 0.01 0.00 0.00 0.00 0.01 0.05 0.09 0.10 0.10 0.10 0.10 0.13 0.14 0.17 0.20 0.21 0.26 0.27 0.23 0.15 0.10 0.08 0.09 0.12 0.13 0.16 0.17 0.18 0.20 0.23 0.19 0.17 0.21
0.00 0.00 0.00 0.00 0.00 0.00 0.00 0.00 0.00 0.00 0.00 0.00 0.00 0.00 0.00 0.00 0.00 0.01 0.01 0.01 0.03 0.06 0.08 0.08 0.10 0.12 0.14 0.17 0.18 0.16 0.16 0.12 0.14 0.16 0.15 0.10 0.07 0.05 0.05 0.07 0.10 0.13 0.14 0.15 0.20 0.21 0.20 0.19 0.22
0.00 0.00 0.00 0.00 0.00 0.00 0.00 0.00 0.00 0.00 0.00 0.00 0.00 0.00 0.00 0.00 0.01 0.02 0.01 0.02 0.02 0.03 0.04 0.05 0.06 0.08 0.09 0.12 0.13 0.14 0.14 0.11 0.14 0.13 0.07 0.04 0.03 0.03 0.04 0.06 0.09 0.12 0.13 0.16 0.15 0.15 0.25 0.26 0.24
0.00 0.00 0.00 0.00 0.00 0.00 0.00 0.00 0.00 0.00 0.00 0.00 0.00 0.00 0.00 0.00 0.00 0.01 0.02 0.02 0.02 0.02 0.02 0.03 0.03 0.03 0.03 0.03 0.04 0.05 0.07 0.07 0.07 0.06 0.04 0.04 0.05 0.05 0.05 0.07 0.11 0.15 0.18 0.19 0.18 0.18 0.22 0.24 0.25
0.00 0.00 0.00 0.00 0.00 0.00 0.00 0.00 0.00 0.00 0.00 0.01 0.02 0.02 0.01 0.00 0.00 0.00 0.01 0.01 0.01 0.01 0.01 0.01 0.01 0.01 0.01 0.01 0.01 0.01 0.01 0.02 0.03 0.05 0.07 0.08 0.10 0.11 0.11 0.13 0.17 0.22 0.24 0.26 0.22 0.21 0.23 0.24 0.27
0.00 0.01 0.03 0.02 0.01 0.00 0.00 0.00 0.00 0.01 0.00 0.02 0.04 0.05 0.03 0.01 0.00 0.00 0.00 0.00 0.00 0.00 0.00 0.01 0.01 0.01 0.00 0.00 0.00 0.01 0.01 0.01 0.03 0.05 0.08 0.11 0.13 0.14 0.16 0.18 0.23 0.27 0.29 0.30 0.29 0.28 0.28 0.30 0.29
0.00 0.01 0.08 0.08 0.03 0.01 0.01 0.01 0.03 0.02 0.02 0.03 0.03 0.03 0.01 0.01 0.00 0.00 0.00 0.01 0.01 0.01 0.01 0.01 0.03 0.03 0.02 0.02 0.02 0.02 0.02 0.03 0.04 0.05 0.06 0.11 0.16 0.17 0.18 0.19 0.21 0.25 0.27 0.28 0.30 0.32 0.33 0.33 0.31
0.01 0.02 0.03 0.12 0.12 0.10 0.02 0.01 0.06 0.04 0.05 0.03 0.03 0.02 0.01 0.01 0.01 0.01 0.01 0.01 0.02 0.02 0.03 0.04 0.06 0.05 0.04 0.02 0.02 0.03 0.04 0.05 0.07 0.07 0.07 0.10 0.13 0.16 0.17 0.19 0.21 0.21 0.22 0.23 0.24 0.26 0.28 0.29 0.26
0.00 0.02 0.09 0.18 0.16 0.13 0.05 0.04 0.13 0.17 0.18 0.18 0.13 0.05 0.02 0.01 0.01 0.01 0.01 0.01 0.02 0.04 0.06 0.07 0.07 0.05 0.02 0.01 0.01 0.01 0.02 0.03 0.05 0.05 0.05 0.06 0.08 0.11 0.14 0.14 0.13 0.13 0.14 0.15 0.16 0.16 0.17 0.18 0.17
0.02 0.05 0.13 0.19 0.17 0.15 0.12 0.12 0.11 0.16 0.26 0.35 0.30 0.15 0.06 0.03 0.02 0.02 0.02 0.03 0.03 0.04 0.05 0.07 0.05 0.04 0.02 0.01 0.01 0.00 0.00 0.01 0.01 0.01 0.01 0.01 0.02 0.04 0.05 0.06 0.06 0.05 0.05 0.05 0.06 0.06 0.07 0.07 0.07
0.02 0.06 0.14 0.22 0.22 0.20 0.16 0.13 0.06 0.06 0.12 0.19 0.18 0.10 0.05 0.04 0.02 0.01 0.01 0.02 0.02 0.03 0.03 0.03 0.03 0.02 0.01 0.00 0.00 0.00 0.00 0.00 0.00 0.00 0.00 0.00 0.01 0.01 0.01 0.01 0.01 0.01 0.01 0.01 0.01 0.01 0.01 0.02 0.03
MSLP
1007.67 1008.08 1008.53 1008.90 1009.08 1008.98 1008.62 1008.05 1007.40 1006.81 1006.41 1006.29 1006.47 1006.88 1007.44 1008.03 1008.54 1008.92 1009.16 1009.32 1009.48 1009.73 1010.12 1010.66 1011.33 1012.03 1012.67 1013.18 1013.52 1013.68 1013.72 1013.72 1013.76 1013.89 1014.14 1014.49 1014.88 1015.26 1015.55 1015.73 1015.79 1015.77 1015.72 1015.69 1015.72 1015.82 1016.00 1016.20 1016.39
1007.83 1008.26 1008.68 1008.96 1009.03 1008.82 1008.37 1007.75 1007.09 1006.53 1006.17 1006.08 1006.26 1006.66 1007.17 1007.69 1008.14 1008.49 1008.74 1008.95 1009.21 1009.59 1010.12 1010.79 1011.55 1012.30 1012.96 1013.46 1013.75 1013.88 1013.89 1013.87 1013.91 1014.06 1014.34 1014.71 1015.11 1015.48 1015.75 1015.90 1015.93 1015.88 1015.82 1015.79 1015.84 1015.96 1016.16 1016.37 1016.57
1008.06 1008.49 1008.84 1009.02 1008.94 1008.62 1008.08 1007.42 1006.77 1006.25 1005.96 1005.93 1006.15 1006.54 1007.01 1007.47 1007.86 1008.15 1008.39 1008.63 1008.96 1009.43 1010.06 1010.83 1011.67 1012.48 1013.16 1013.65 1013.95 1014.06 1014.08 1014.07 1014.13 1014.30 1014.59 1014.96 1015.35 1015.68 1015.92 1016.03 1016.03 1015.98 1015.92 1015.91 1015.98 1016.14 1016.35 1016.58 1016.76
1008.36 1008.75 1009.01 1009.04 1008.82 1008.37 1007.75 1007.08 1006.46 1006.02 1005.83 1005.88 1006.15 1006.55 1006.99 1007.40 1007.72 1007.95 1008.15 1008.40 1008.75 1009.28 1009.97 1010.81 1011.70 1012.55 1013.26 1013.77 1014.08 1014.22 1014.27 1014.30 1014.39 1014.58 1014.88 1015.23 1015.58 1015.88 1016.07 1016.14 1016.13 1016.07 1016.03 1016.05 1016.16 1016.35 1016.59 1016.81 1016.97
1008.70 1009.02 1009.14 1009.03 1008.66 1008.09 1007.41 1006.74 1006.18 1005.85 1005.76 1005.92 1006.26 1006.69 1007.12 1007.48 1007.73 1007.90 1008.05 1008.26 1008.62 1009.15 1009.88 1010.74 1011.66 1012.53 1013.26 1013.80 1014.14 1014.33 1014.42 1014.50 1014.63 1014.85 1015.15 1015.48 1015.79 1016.04 1016.19 1016.23 1016.20 1016.16 1016.14 1016.21 1016.36 1016.58 1016.83 1017.04 1017.18
1009.02 1009.23 1009.21 1008.93 1008.43 1007.76 1007.05 1006.40 1005.93 1005.71 1005.76 1006.03 1006.46 1006.93 1007.36 1007.68 1007.88 1007.99 1008.09 1008.26 1008.58 1009.10 1009.82 1010.67 1011.58 1012.44 1013.18 1013.73 1014.11 1014.34 1014.49 1014.62 1014.80 1015.04 1015.33 1015.64 1015.92 1016.12 1016.24 1016.26 1016.23 1016.20 1016.23 1016.33 1016.52 1016.76 1017.01 1017.21 1017.31
1009.26 1009.34 1009.16 1008.73 1008.11 1007.37 1006.65 1006.05 1005.68 1005.59 1005.77 1006.17 1006.68 1007.20 1007.64 1007.95 1008.12 1008.19 1008.25 1008.38 1008.67 1009.15 1009.82 1010.63 1011.49 1012.32 1013.03 1013.58 1013.97 1014.23 1014.42 1014.61 1014.82 1015.08 1015.38 1015.67 1015.92 1016.09 1016.18 1016.19 1016.17 1016.17 1016.23 1016.36 1016.58 1016.83 1017.07 1017.25 1017.31
1009.37 1009.30 1008.98 1008.42 1007.70 1006.93 1006.22 1005.70 1005.43 1005.47 1005.77 1006.27 1006.86 1007.44 1007.91 1008.23 1008.39 1008.45 1008.49 1008.60 1008.86 1009.29 1009.90 1010.63 1011.42 1012.18 1012.83 1013.34 1013.72 1014.00 1014.21 1014.43 1014.66 1014.94 1015.24 1015.52 1015.76 1015.92 1015.99 1016.01 1016.01 1016.03 1016.11 1016.27 1016.49 1016.74 1016.96 1017.11 1017.13
1009.32 1009.11 1008.66 1008.01 1007.24 1006.46 1005.80 1005.35 1005.18 1005.32 1005.72 1006.30 1006.96 1007.58 1008.09 1008.44 1008.63 1008.71 1008.77 1008.88 1009.11 1009.50 1010.04 1010.69 1011.38 1012.04 1012.60 1013.05 1013.39 1013.65 1013.86 1014.09 1014.34 1014.63 1014.93 1015.22 1015.45 1015.61 1015.70 1015.73 1015.75 1015.79 1015.89 1016.06 1016.27 1016.50 1016.69 1016.79 1016.78
1009.11 1008.80 1008.26 1007.55 1006.77 1006.02 1005.41 1005.04 1004.95 1005.16 1005.62 1006.25 1006.94 1007.60 1008.14 1008.53 1008.77 1008.90 1009.00 1009.14 1009.38 1009.74 1010.22 1010.78 1011.36 1011.90 1012.36 1012.73 1013.00 1013.22 1013.42 1013.63 1013.89 1014.18 1014.49 1014.78 1015.03 1015.21 1015.32 1015.38 1015.42 1015.49 1015.59 1015.75 1015.94 1016.13 1016.28 1016.35 1016.31
1008.81 1008.43 1007.84 1007.13 1006.38 1005.68 1005.13 1004.82 1004.78 1005.02 1005.50 1006.12 1006.81 1007.47 1008.03 1008.47 1008.76 1008.97 1009.14 1009.33 1009.59 1009.94 1010.37 1010.85 1011.33 1011.77 1012.13 1012.40 1012.61 1012.77 1012.93 1013.13 1013.38 1013.67 1013.98 1014.29 1014.56 1014.77 1014.92 1015.01 1015.09 1015.17 1015.28 1015.42 1015.57 1015.72 1015.82 1015.85 1015.79
1008.49 1008.08 1007.50 1006.83 1006.13 1005.49 1005.01 1004.74 1004.71 1004.94 1005.37 1005.95 1006.59 1007.22 1007.79 1008.25 1008.60 1008.88 1009.13 1009.38 1009.68 1010.03 1010.43 1010.85 1011.26 1011.61 1011.89 1012.09 1012.24 1012.36 1012.49 1012.66 1012.89 1013.17 1013.49 1013.81 1014.10 1014.35 1014.54 1014.68 1014.79 1014.89 1015.00 1015.11 1015.24 1015.34 1015.40 1015.39 1015.30
1008.23 1007.84 1007.31 1006.70 1006.07 1005.51 1005.07 1004.81 1004.76 1004.93 1005.28 1005.76 1006.32 1006.89 1007.43 1007.90 1008.30 1008.65 1008.96 1009.27 1009.61 1009.97 1010.36 1010.75 1011.11 1011.42 1011.65 1011.81 1011.93 1012.02 1012.13 1012.28 1012.49 1012.76 1013.07 1013.40 1013.71 1013.99 1014.22 1014.40 1014.55 1014.67 1014.78 1014.88 1014.97 1015.04 1015.06 1015.03 1014.92
1008.11 1007.76 1007.29 1006.76 1006.22 1005.72 1005.32 1005.04 1004.94 1005.01 1005.24 1005.60 1006.05 1006.53 1007.03 1007.49 1007.91 1008.30 1008.66 1009.01 1009.37 1009.75 1010.14 1010.52 1010.87 1011.17 1011.41 1011.58 1011.70 1011.80 1011.90 1012.04 1012.22 1012.47 1012.76 1013.08 1013.39 1013.69 1013.96 1014.18 1014.36 1014.50 1014.62 1014.72 1014.80 1014.85 1014.85 1014.80 1014.69
1008.14 1007.84 1007.44 1006.99 1006.53 1006.07 1005.68 1005.38 1005.19 1005.15 1005.25 1005.48 1005.81 1006.21 1006.65 1007.09 1007.51 1007.91 1008.29 1008.66 1009.02 1009.40 1009.79 1010.18 1010.55 1010.88 1011.16 1011.38 1011.55 1011.68 1011.80 1011.93 1012.09 1012.29 1012.55 1012.83 1013.13 1013.43 1013.71 1013.96 1014.17 1014.34 1014.49 1014.60 1014.68 1014.73 1014.73 1014.68 1014.57
1008.28 1008.02 1007.69 1007.31 1006.90 1006.48 1006.08 1005.73 1005.47 1005.32 1005.30 1005.42 1005.65 1005.98 1006.37 1006.79 1007.20 1007.59 1007.95 1008.30 1008.65 1009.00 1009.38 1009.77 1010.17 1010.56 1010.91 1011.21 1011.45 1011.64 1011.79 1011.92 1012.05 1012.21 1012.39 1012.62 1012.88 1013.15 1013.43 1013.69 1013.93 1014.14 1014.31 1014.46 1014.56 1014.63 1014.65 1014.62 1014.54
1008.48 1008.25 1007.97 1007.63 1007.26 1006.86 1006.45 1006.05 1005.72 1005.48 1005.38 1005.41 1005.59 1005.88 1006.25 1006.65 1007.05 1007.42 1007.75 1008.05 1008.34 1008.65 1008.99 1009.37 1009.79 1010.23 1010.67 1011.06 1011.40 1011.66 1011.84 1011.97 1012.06 1012.15 1012.26 1012.41 1012.60 1012.83 1013.09 1013.35 1013.61 1013.85 1014.07 1014.25 1014.40 1014.50 1014.57 1014.58 1014.53
1008.66 1008.44 1008.19 1007.90 1007.55 1007.16 1006.73 1006.30 1005.91 1005.62 1005.46 1005.47 1005.63 1005.93 1006.32 1006.73 1007.14 1007.49 1007.77 1008.01 1008.21 1008.44 1008.71 1009.05 1009.48 1009.96 1010.46 1010.94 1011.36 1011.68 1011.90 1012.03 1012.08 1012.10 1012.12 1012.17 1012.28 1012.45 1012.67 1012.93 1013.21 1013.48 1013.73 1013.96 1014.16 1014.32 1014.44 1014.50 1014.49
1008.77 1008.57 1008.35 1008.09 1007.77 1007.38 1006.93 1006.48 1006.06 1005.75 1005.58 1005.60 1005.80 1006.15 1006.59 1007.06 1007.49 1007.83 1008.07 1008.22 1008.33 1008.44 1008.62 1008.90 1009.28 1009.77 1010.31 1010.85 1011.32 1011.70 1011.94 1012.06 1012.07 1012.02 1011.95 1011.91 1011.94 1012.05 1012.23 1012.47 1012.76 1013.05 1013.34 1013.62 1013.86 1014.07 1014.24 1014.36 1014.40
1008.81 1008.64 1008.47 1008.24 1007.95 1007.57 1007.13 1006.66 1006.23 1005.91 1005.77 1005.83 1006.10 1006.53 1007.06 1007.60 1008.08 1008.43 1008.63 1008.71 1008.71 1008.71 1008.76 1008.93 1009.25 1009.70 1010.23 1010.79 1011.30 1011.70 1011.95 1012.06 1012.03 1011.91 1011.77 1011.66 1011.61 1011.66 1011.81 1012.04 1012.32 1012.63 1012.95 1013.26 1013.54 1013.79 1014.00 1014.16 1014.25
1008.82 1008.72 1008.61 1008.46 1008.21 1007.86 1007.42 1006.95 1006.51 1006.20 1006.08 1006.19 1006.54 1007.06 1007.68 1008.31 1008.85 1009.22 1009.41 1009.43 1009.33 1009.20 1009.13 1009.17 1009.39 1009.76 1010.24 1010.78 1011.28 1011.68 1011.93 1012.02 1011.96 1011.81 1011.62 1011.45 1011.36 1011.36 1011.48 1011.70 1011.98 1012.30 1012.62 1012.94 1013.23 1013.50 1013.72 1013.91 1014.03
1008.89 1008.90 1008.90 1008.84 1008.66 1008.35 1007.93 1007.45 1007.00 1006.68 1006.56 1006.70 1007.09 1007.69 1008.39 1009.10 1009.70 1010.11 1010.30 1010.27 1010.10 1009.86 1009.66 1009.57 1009.66 1009.93 1010.33 1010.81 1011.27 1011.65 1011.90 1011.97 1011.90 1011.73 1011.52 1011.33 1011.21 1011.21 1011.31 1011.51 1011.78 1012.09 1012.41 1012.70 1012.98 1013.22 1013.44 1013.62 1013.75
1009.09 1009.25 1009.40 1009.46 1009.38 1009.13 1008.72 1008.22 1007.74 1007.38 1007.23 1007.35 1007.75 1008.37 1009.11 1009.87 1010.52 1010.97 1011.16 1011.12 1010.89 1010.57 1010.26 1010.06 1010.03 1010.18 1010.48 1010.88 1011.29 1011.64 1011.86 1011.93 1011.87 1011.70 1011.50 1011.32 1011.21 1011.20 1011.30 1011.49 1011.75 1012.03 1012.30 1012.56 1012.78 1012.98 1013.15 1013.30 1013.42
1009.47 1009.82 1010.14 1010.35 1010.38 1010.18 1009.79 1009.27 1008.73 1008.30 1008.07 1008.12 1008.46 1009.04 1009.78 1010.55 1011.21 1011.68 1011.89 1011.84 1011.59 1011.22 1010.84 1010.55 1010.42 1010.46 1010.67 1010.99 1011.34 1011.65 1011.85 1011.92 1011.88 1011.74 1011.56 1011.41 1011.32 1011.33 1011.43 1011.61 1011.84 1012.08 1012.30 1012.49 1012.64 1012.76 1012.85 1012.94 1013.02
1010.04 1010.59 1011.09 1011.45 1011.58 1011.45 1011.07 1010.52 1009.91 1009.37 1009.02 1008.95 1009.18 1009.67 1010.34 1011.06 1011.71 1012.18 1012.40 1012.36 1012.12 1011.74 1011.33 1010.98 1010.78 1010.75 1010.88 1011.13 1011.42 1011.68 1011.88 1011.96 1011.93 1011.83 1011.70 1011.58 1011.52 1011.54 1011.65 1011.81 1012.00 1012.19 1012.34 1012.45 1012.51 1012.53 1012.55 1012.56 1012.59
1010.74 1011.47 1012.13 1012.62 1012.85 1012.77 1012.40 1011.81 1011.12 1010.48 1010.00 1009.78 1009.86 1010.22 1010.77 1011.41 1012.00 1012.45 1012.67 1012.66 1012.44 1012.08 1011.68 1011.32 1011.09 1011.02 1011.09 1011.28 1011.53 1011.77 1011.95 1012.04 1012.04 1011.97 1011.88 1011.80 1011.76 1011.80 1011.89 1012.03 1012.18 1012.30 1012.38 1012.40 1012.37 1012.30 1012.23 1012.17 1012.14
1011.49 1012.34 1013.12 1013.70 1014.00 1013.96 1013.60 1012.99 1012.24 1011.50 1010.90 1010.54 1010.47 1010.67 1011.08 1011.60 1012.12 1012.52 1012.74 1012.75 1012.57 1012.26 1011.90 1011.57 1011.35 1011.27 1011.32 1011.47 1011.69 1011.90 1012.07 1012.17 1012.19 1012.15 1012.08 1012.03 1012.01 1012.04 1012.12 1012.23 1012.32 1012.39 1012.39 1012.34 1012.22 1012.08 1011.93 1011.81 1011.73
1012.16 1013.07 1013.90 1014.52 1014.85 1014.83 1014.49 1013.88 1013.11 1012.32 1011.64 1011.17 1010.97 1011.04 1011.31 1011.72 1012.15 1012.49 1012.70 1012.72 1012.59 1012.34 1012.04 1011.76 1011.57 1011.51 1011.56 1011.70 1011.90 1012.09 1012.25 1012.35 1012.38 1012.35 1012.30 1012.26 1012.24 1012.26 1012.31 1012.38 1012.42 1012.43 1012.38 1012.26 1012.09 1011.89 1011.70 1011.53 1011.41
1012.66 1013.55 1014.35 1014.95 1015.27 1015.26 1014.94 1014.36 1013.62 1012.84 1012.16 1011.65 1011.38 1011.35 1011.52 1011.82 1012.16 1012.45 1012.63 1012.67 1012.57 1012.38 1012.14 1011.93 1011.80 1011.76 1011.83 1011.97 1012.16 1012.34 1012.49 1012.58 1012.60 1012.58 1012.53 1012.48 1012.45 1012.45 1012.47 1012.49 1012.49 1012.46 1012.36 1012.21 1012.01 1011.78 1011.56 1011.38 1011.24
1012.94 1013.73 1014.43 1014.95 1015.23 1015.22 1014.93 1014.42 1013.76 1013.07 1012.44 1011.97 1011.70 1011.64 1011.75 1011.98 1012.25 1012.49 1012.63 1012.67 1012.60 1012.45 1012.28 1012.14 1012.05 1012.05 1012.14 1012.29 1012.47 1012.64 1012.77 1012.84 1012.86 1012.82 1012.77 1012.70 1012.65 1012.63 1012.61 1012.60 1012.57 1012.51 1012.39 1012.22 1012.02 1011.79 1011.58 1011.39 1011.26
Thickness
5846 5852 5856 5853 5838 5830 5833 5855 5866 5864 5869 5877 5878 5873 5854 5841 5832 5815 5845 5856 5847 5836 5827 5821 5818 5814 5812 5810 5807 5804 5801 5799 5796 5793 5791 5788 5786 5784 5782 5780 5778 5776 5774 5771 5769 5768 5766 5765 5763
5848 5858 5856 5845 5831 5819 5830 5859 5858 5860 5870 5879 5877 5874 5859 5845 5850 5846 5851 5853 5846 5836 5829 5823 5818 5814 5812 5810 5807 5804 5801 5798 5795 5792 5790 5788 5785 5783 5781 5779 5777 5775 5773 5771 5769 5767 5765 5763 5762
5847 5856 5844 5843 5837 5829 5832 5856 5860 5867 5876 5876 5869 5868 5855 5844 5851 5851 5854 5856 5848 5839 5831 5822 5818 5814 5812 5809 5807 5804 5801 5798 5795 5792 5789 5787 5785 5782 5780 5778 5776 5774 5772 5770 5768 5766 5764 5762 5761
5847 5851 5846 5839 5840 5859 5858 5862 5867 5864 5867 5872 5870 5855 5850 5859 5858 5856 5859 5857 5848 5840 5831 5823 5819 5815 5811 5809 5806 5803 5800 5797 5794 5791 5789 5786 5784 5782 5780 5777 5775 5774 5772 5770 5767 5766 5764 5762 5760
5847 5839 5832 5833 5848 5869 5874 5874 5872 5861 5859 5865 5866 5843 5838 5855 5861 5859 5859 5856 5849 5842 5831 5823 5818 5815 5811 5808 5805 5802 5799 5796 5793 5791 5788 5785 5783 5780 5778 5776 5774 5773 5771 5769 5767 5765 5764 5763 5761
5834 5838 5821 5824 5845 5869 5875 5874 5870 5862 5859 5862 5859 5842 5836 5853 5853 5855 5857 5856 5854 5842 5832 5822 5817 5814 5810 5807 5804 5801 5798 5796 5793 5790 5787 5784 5782 5779 5777 5775 5774 5772 5770 5769 5767 5765 5764 5762 5761
5824 5826 5822 5834 5843 5859 5872 5877 5866 5858 5856 5863 5868 5844 5837 5847 5853 5856 5855 5857 5854 5844 5832 5823 5817 5813 5810 5806 5804 5801 5798 5795 5792 5789 5786 5784 5781 5779 5777 5775 5774 5772 5770 5769 5767 5765 5764 5762 5761
5836 5827 5822 5836 5846 5857 5875 5876 5872 5865 5858 5872 5871 5850 5834 5846 5855 5854 5853 5854 5850 5842 5833 5827 5820 5815 5810 5806 5803 5801 5798 5795 5792 5789 5786 5783 5781 5779 5778 5776 5774 5773 5771 5770 5768 5766 5765 5763 5761
5837 5814 5813 5835 5856 5867 5875 5868 5872 5878 5866 5864 5866 5864 5857 5856 5855 5847 5845 5844 5842 5839 5834 5830 5823 5817 5813 5809 5805 5801 5798 5794 5792 5789 5786 5784 5782 5782 5780 5778 5776 5774 5772 5770 5769 5767 5765 5764 5762
5827 5808 5822 5851 5868 5871 5870 5866 5869 5863 5853 5851 5851 5854 5855 5852 5847 5839 5836 5834 5832 5832 5832 5831 5825 5820 5817 5814 5807 5803 5800 5796 5793 5791 5788 5785 5784 5785 5784 5782 5778 5775 5773 5771 5770 5768 5767 5765 5764
5826 5818 5836 5854 5869 5868 5862 5865 5871 5858 5847 5851 5846 5843 5846 5845 5841 5836 5833 5833 5830 5830 5829 5830 5825 5822 5819 5816 5808 5808 5805 5799 5795 5794 5790 5788 5787 5787 5786 5782 5778 5775 5773 5772 5772 5770 5768 5768 5767
5824 5830 5840 5849 5863 5859 5855 5860 5861 5861 5858 5870 5864 5854 5845 5841 5837 5835 5831 5831 5828 5827 5826 5827 5825 5820 5819 5817 5813 5810 5808 5802 5801 5797 5793 5791 5788 5788 5787 5783 5780 5777 5775 5773 5773 5771 5771 5770 5770
5820 5826 5839 5849 5853 5852 5852 5851 5854 5859 5867 5869 5862 5852 5843 5840 5837 5836 5834 5832 5827 5824 5824 5824 5822 5817 5814 5813 5811 5809 5807 5806 5801 5799 5793 5791 5790 5786 5786 5782 5780 5777 5776 5774 5772 5771 5770 5770 5770
5824 5827 5831 5841 5845 5847 5842 5843 5848 5855 5864 5859 5852 5843 5840 5839 5837 5834 5831 5828 5825 5822 5822 5822 5818 5815 5810 5807 5804 5805 5804 5802 5801 5798 5794 5790 5788 5786 5784 5781 5779 5777 5776 5774 5771 5771 5769 5768 5768
5822 5814 5819 5830 5837 5840 5838 5828 5841 5859 5859 5848 5845 5841 5837 5837 5836 5833 5830 5827 5826 5823 5822 5819 5815 5813 5807 5803 5800 5799 5799 5799 5797 5795 5793 5789 5786 5784 5782 5780 5778 5776 5774 5772 5770 5769 5767 5766 5766
5807 5797 5793 5817 5830 5835 5824 5809 5842 5860 5851 5840 5839 5838 5834 5832 5834 5833 5831 5826 5825 5823 5820 5817 5815 5810 5805 5801 5798 5796 5795 5795 5794 5792 5791 5788 5784 5782 5780 5777 5776 5773 5771 5769 5767 5765 5762 5760 5760
5787 5781 5787 5808 5831 5831 5821 5812 5838 5857 5845 5834 5832 5833 5829 5825 5827 5829 5828 5825 5823 5821 5817 5812 5811 5808 5803 5799 5795 5793 5791 5790 5788 5787 5787 5785 5783 5781 5778 5774 5772 5770 5767 5764 5762 5762 5758 5755 5755
5780 5790 5794 5804 5830 5829 5817 5817 5831 5842 5837 5830 5827 5826 5823 5820 5820 5824 5824 5823 5821 5817 5814 5809 5805 5803 5801 5796 5791 5788 5786 5785 5784 5782 5782 5781 5779 5777 5775 5772 5768 5766 5763 5760 5757 5754 5754 5752 5751
5789 5787 5790 5813 5834 5826 5809 5808 5819 5827 5824 5819 5815 5814 5813 5813 5817 5818 5817 5817 5815 5812 5807 5803 5799 5796 5794 5789 5785 5781 5778 5777 5777 5777 5776 5774 5773 5772 5771 5769 5767 5763 5759 5756 5754 5751 5748 5747 5748
5775 5771 5777 5798 5820 5810 5797 5795 5809 5817 5813 5809 5803 5800 5802 5799 5800 5804 5804 5804 5803 5802 5799 5795 5792 5790 5788 5785 5782 5779 5777 5774 5773 5772 5771 5770 5768 5766 5766 5764 5762 5759 5755 5752 5749 5747 5743 5742 5743
5762 5763 5769 5778 5796 5800 5782 5773 5789 5805 5806 5799 5795 5792 5791 5789 5787 5787 5788 5789 5789 5788 5788 5787 5785 5783 5781 5779 5776 5773 5770 5768 5766 5765 5765 5766 5764 5762 5761 5759 5757 5754 5751 5747 5744 5742 5739 5735 5737
5752 5772 5773 5772 5768 5766 5771 5750 5776 5792 5792 5789 5784 5782 5775 5773 5772 5771 5771 5771 5772 5774 5776 5775 5773 5772 5772 5771 5768 5764 5760 5758 5760 5760 5761 5761 5760 5759 5757 5755 5752 5749 5746 5743 5739 5739 5735 5732 5729
5757 5769 5760 5760 5755 5751 5760 5749 5765 5791 5782 5779 5774 5768 5762 5757 5754 5753 5754 5755 5758 5761 5762 5762 5761 5760 5761 5760 5759 5756 5754 5754 5754 5755 5755 5754 5754 5753 5752 5749 5746 5743 5739 5737 5734 5731 5729 5727 5725
5757 5752 5747 5746 5739 5723 5743 5741 5748 5777 5782 5771 5756 5750 5745 5740 5739 5739 5742 5744 5745 5748 5749 5749 5748 5747 5749 5749 5748 5746 5744 5743 5742 5742 5743 5743 5744 5744 5743 5741 5738 5735 5732 5730 5727 5725 5722 5720 5720
5743 5725 5707 5706 5710 5718 5747 5742 5747 5765 5773 5759 5743 5734 5730 5727 5727 5728 5729 5731 5733 5735 5737 5738 5737 5736 5738 5738 5737 5737 5735 5735 5733 5731 5731 5731 5730 5730 5730 5729 5727 5725 5724 5722 5720 5717 5714 5713 5713
5730 5720 5692 5677 5690 5714 5734 5721 5719 5734 5736 5732 5725 5719 5715 5714 5716 5717 5720 5722 5723 5725 5726 5727 5727 5726 5727 5727 5726 5726 5725 5724 5722 5720 5720 5718 5717 5717 5717 5716 5714 5713 5713 5712 5710 5708 5706 5707 5707
5718 5716 5720 5698 5688 5681 5699 5719 5715 5721 5715 5709 5704 5700 5698 5699 5702 5705 5708 5710 5711 5713 5714 5715 5715 5714 5715 5716 5715 5714 5713 5711 5709 5708 5708 5706 5705 5705 5704 5703 5702 5701 5701 5701 5700 5699 5699 5700 5701
5723 5716 5703 5680 5659 5660 5682 5700 5699 5693 5690 5688 5684 5682 5682 5685 5688 5690 5692 5695 5697 5699 5700 5702 5703 5702 5703 5703 5704 5703 5700 5698 5697 5697 5695 5694 5694 5694 5693 5692 5691 5691 5691 5691 5692 5692 5693 5694 5695
5698 5684 5671 5664 5660 5648 5650 5672 5686 5686 5682 5675 5667 5666 5669 5672 5676 5678 5679 5681 5683 5685 5687 5687 5688 5689 5689 5689 5689 5689 5688 5688 5687 5685 5685 5685 5685 5685 5685 5684 5684 5684 5684 5685 5684 5684 5686 5686 5689
5690 5670 5654 5631 5630 5635 5635 5655 5687 5685 5682 5673 5665 5662 5663 5664 5666 5668 5669 5669 5670 5671 5673 5674 5675 5676 5677 5678 5678 5678 5677 5677 5677 5675 5675 5676 5676 5676 5677 5677 5678 5678 5679 5679 5679 5678 5680 5681 5682